| time (UTC) | temp C | wind direction | speed KPH | gust KPH | rain 1hr cm | rain 24hr cm | rain mn cm | humidity % | barometer mb |
| 20260503231754 | 17 | 268 | 0.0 | 3.2 | 0.00 | 0.00 | 0.00 | 43 | 1017.0 |
| 20260503231250 | 17 | 281 | 0.0 | 0.0 | 0.00 | 0.00 | 0.00 | 45 | 1017.0 |
| 20260503230746 | 17 | 274 | 0.0 | 3.2 | 0.00 | 0.00 | 0.00 | 42 | 1017.0 |
| 20260503230243 | 18 | 263 | 0.0 | 3.2 | 0.00 | 0.00 | 0.00 | 43 | 1017.1 |
| 20260503225736 | 18 | 258 | 1.6 | 4.8 | 0.00 | 0.00 | 0.00 | 42 | 1017.2 |
| 20260503225236 | 18 | 246 | 3.2 | 4.8 | 0.00 | 0.00 | 0.00 | 41 | 1017.2 |
| 20260503224733 | 18 | 264 | 1.6 | 4.8 | 0.00 | 0.00 | 0.00 | 40 | 1017.4 |
| 20260503224230 | 18 | 269 | 3.2 | 4.8 | 0.00 | 0.00 | 0.00 | 42 | 1017.3 |
| 20260503223728 | 18 | 260 | 0.0 | 3.2 | 0.00 | 0.00 | 0.00 | 43 | 1017.4 |
| 20260503223225 | 18 | 250 | 1.6 | 3.2 | 0.00 | 0.00 | 0.00 | 43 | 1017.5 |
| 20260503222721 | 19 | 275 | 3.2 | 4.8 | 0.00 | 0.00 | 0.00 | 39 | 1017.3 |
| 20260503222219 | 19 | 265 | 0.0 | 3.2 | 0.00 | 0.00 | 0.00 | 40 | 1017.4 |
| 20260503221718 | 20 | 261 | 1.6 | 4.8 | 0.00 | 0.00 | 0.00 | 39 | 1017.7 |
| 20260503221215 | 20 | 271 | 1.6 | 8.0 | 0.00 | 0.00 | 0.00 | 40 | 1017.5 |
| 20260503220711 | 20 | 272 | 4.8 | 8.0 | 0.00 | 0.00 | 0.00 | 36 | 1017.6 |
| 20260503220207 | 20 | 251 | 6.4 | 8.0 | 0.00 | 0.00 | 0.00 | 37 | 1017.5 |
| 20260503215659 | 20 | 261 | 3.2 | 8.0 | 0.00 | 0.00 | 0.00 | 38 | 1017.7 |
| 20260503215156 | 20 | 276 | 0.0 | 3.2 | 0.00 | 0.00 | 0.00 | 41 | 1017.7 |
| 20260503214654 | 20 | 238 | 6.4 | 8.0 | 0.00 | 0.00 | 0.00 | 38 | 1017.9 |
| 20260503214149 | 19 | 281 | 0.0 | 4.8 | 0.00 | 0.00 | 0.00 | 40 | 1017.9 |
| 20260503213644 | 19 | 262 | 0.0 | 4.8 | 0.00 | 0.00 | 0.00 | 40 | 1017.9 |
| 20260503213140 | 20 | 258 | 4.8 | 8.0 | 0.00 | 0.00 | 0.00 | 40 | 1018.0 |
| 20260503212637 | 20 | 261 | 0.0 | 11.3 | 0.00 | 0.00 | 0.00 | 39 | 1017.9 |
| 20260503212135 | 20 | 195 | 11.3 | 16.1 | 0.00 | 0.00 | 0.00 | 39 | 1017.9 |
| 20260503211632 | 20 | 222 | 4.8 | 8.0 | 0.00 | 0.00 | 0.00 | 38 | 1018.1 |
| 20260503211132 | 19 | 244 | 1.6 | 3.2 | 0.00 | 0.00 | 0.00 | 38 | 1018.2 |
| 20260503210629 | 19 | 264 | 1.6 | 8.0 | 0.00 | 0.00 | 0.00 | 38 | 1018.1 |
| 20260503210126 | 19 | 289 | 1.6 | 4.8 | 0.00 | 0.00 | 0.00 | 39 | 1018.2 |
| 20260503205622 | 20 | 258 | 8.0 | 12.9 | 0.00 | 0.00 | 0.00 | 38 | 1018.3 |
| 20260503205118 | 20 | 248 | 4.8 | 11.3 | 0.00 | 0.00 | 0.00 | 40 | 1018.5 |
| 20260503204615 | 20 | 250 | 1.6 | 12.9 | 0.00 | 0.00 | 0.00 | 38 | 1018.5 |
| 20260503204113 | 20 | 282 | 0.0 | 8.0 | 0.00 | 0.00 | 0.00 | 36 | 1018.5 |
| 20260503203610 | 19 | 277 | 1.6 | 3.2 | 0.00 | 0.00 | 0.00 | 36 | 1018.6 |
| 20260503203108 | 20 | 252 | 3.2 | 11.3 | 0.00 | 0.00 | 0.00 | 37 | 1018.8 |
| 20260503202605 | 20 | 265 | 0.0 | 4.8 | 0.00 | 0.00 | 0.00 | 36 | 1018.9 |
| 20260503202103 | 20 | 265 | 3.2 | 11.3 | 0.00 | 0.00 | 0.00 | 36 | 1018.8 |
| 20260503201601 | 19 | 263 | 4.8 | 4.8 | 0.00 | 0.00 | 0.00 | 38 | 1018.9 |
| 20260503201058 | 18 | 273 | 0.0 | 8.0 | 0.00 | 0.00 | 0.00 | 39 | 1019.1 |
| 20260503200554 | 19 | 266 | 8.0 | 11.3 | 0.00 | 0.00 | 0.00 | 39 | 1019.2 |
| 20260503200050 | 20 | 271 | 4.8 | 12.9 | 0.00 | 0.00 | 0.00 | 35 | 1019.5 |
| 20260503195547 | 18 | 272 | 0.0 | 0.0 | 0.00 | 0.00 | 0.00 | 35 | 1019.5 |
| 20260503195044 | 18 | 239 | 1.6 | 4.8 | 0.00 | 0.00 | 0.00 | 35 | 1019.5 |
| 20260503194541 | 19 | 266 | 4.8 | 11.3 | 0.00 | 0.00 | 0.00 | 39 | 1019.7 |
| 20260503194040 | 18 | 262 | 4.8 | 8.0 | 0.00 | 0.00 | 0.00 | 36 | 1019.7 |
| 20260503193538 | 19 | 240 | 8.0 | 11.3 | 0.00 | 0.00 | 0.00 | 36 | 1019.7 |
| 20260503193033 | 18 | 272 | 3.2 | 4.8 | 0.00 | 0.00 | 0.00 | 37 | 1019.9 |
| 20260503192530 | 17 | 265 | 1.6 | 8.0 | 0.00 | 0.00 | 0.00 | 39 | 1019.8 |
| 20260503192026 | 17 | 260 | 4.8 | 8.0 | 0.00 | 0.00 | 0.00 | 38 | 1020.0 |
| 20260503191523 | 18 | 245 | 6.4 | 12.9 | 0.00 | 0.00 | 0.00 | 40 | 1019.9 |
| 20260503191020 | 18 | 249 | 6.4 | 8.0 | 0.00 | 0.00 | 0.00 | 41 | 1020.0 |
| 20260503190516 | 18 | 252 | 3.2 | 11.3 | 0.00 | 0.00 | 0.00 | 42 | 1020.1 |
| 20260503190014 | 17 | 300 | 3.2 | 8.0 | 0.00 | 0.00 | 0.00 | 48 | 1020.1 |
| 20260503185509 | 17 | 262 | 1.6 | 12.9 | 0.00 | 0.00 | 0.00 | 40 | 1020.2 |
| 20260503185004 | 17 | 244 | 6.4 | 11.3 | 0.00 | 0.00 | 0.00 | 41 | 1020.3 |
| 20260503184501 | 17 | 238 | 1.6 | 11.3 | 0.00 | 0.00 | 0.00 | 38 | 1020.3 |
| 20260503183957 | 17 | 235 | 6.4 | 11.3 | 0.00 | 0.00 | 0.00 | 40 | 1020.4 |
| 20260503183454 | 17 | 258 | 3.2 | 8.0 | 0.00 | 0.00 | 0.00 | 41 | 1020.2 |
| 20260503182950 | 17 | 284 | 4.8 | 16.1 | 0.00 | 0.00 | 0.00 | 41 | 1020.4 |
| 20260503182449 | 17 | 299 | 3.2 | 4.8 | 0.00 | 0.00 | 0.00 | 41 | 1020.5 |
| 20260503181947 | 17 | 290 | 1.6 | 3.2 | 0.00 | 0.00 | 0.00 | 42 | 1020.5 |
| 20260503181444 | 17 | 236 | 4.8 | 8.0 | 0.00 | 0.00 | 0.00 | 37 | 1020.9 |
| 20260503180939 | 17 | 132 | 3.2 | 11.3 | 0.00 | 0.00 | 0.00 | 41 | 1021.0 |
| 20260503180438 | 17 | 261 | 4.8 | 8.0 | 0.00 | 0.00 | 0.00 | 40 | 1020.7 |
| 20260503175934 | 17 | 261 | 3.2 | 8.0 | 0.00 | 0.00 | 0.00 | 47 | 1020.8 |
| 20260503175433 | 17 | 301 | 1.6 | 4.8 | 0.00 | 0.00 | 0.00 | 42 | 1020.9 |
| 20260503174928 | 16 | 229 | 6.4 | 11.3 | 0.00 | 0.00 | 0.00 | 42 | 1021.0 |
| 20260503174427 | 17 | 229 | 11.3 | 12.9 | 0.00 | 0.00 | 0.00 | 43 | 1021.1 |
| 20260503173926 | 16 | 52 | 6.4 | 8.0 | 0.00 | 0.00 | 0.00 | 41 | 1021.1 |
| 20260503173423 | 16 | 225 | 3.2 | 4.8 | 0.00 | 0.00 | 0.00 | 40 | 1021.1 |
| 20260503172920 | 16 | 263 | 4.8 | 11.3 | 0.00 | 0.00 | 0.00 | 42 | 1021.2 |
| 20260503172417 | 16 | 305 | 6.4 | 11.3 | 0.00 | 0.00 | 0.00 | 40 | 1021.2 |
| 20260503171913 | 16 | 252 | 1.6 | 11.3 | 0.00 | 0.00 | 0.00 | 39 | 1021.4 |
| 20260503171410 | 17 | 278 | 4.8 | 11.3 | 0.00 | 0.00 | 0.00 | 39 | 1021.4 |
| 20260503170908 | 16 | 282 | 0.0 | 4.8 | 0.00 | 0.00 | 0.00 | 42 | 1021.6 |
| 20260503170404 | 16 | 302 | 6.4 | 11.3 | 0.00 | 0.00 | 0.00 | 40 | 1021.7 |
| 20260503150756 | 14 | 255 | 0.0 | 3.2 | 0.00 | 0.00 | 0.00 | 44 | 1022.7 |
| 20260503150252 | 14 | 225 | 3.2 | 8.0 | 0.00 | 0.00 | 0.00 | 41 | 1022.8 |
| 20260503140217 | 13 | 270 | 0.0 | 3.2 | 0.00 | 0.00 | 0.00 | 51 | 1022.6 |
| 20260503131146 | 8 | 269 | 0.0 | 0.0 | 0.00 | 0.00 | 0.00 | 82 | 1022.8 |
| 20260503130643 | 7 | 76 | 1.6 | 3.2 | 0.00 | 0.00 | 0.00 | 93 | 1022.6 |
| 20260503130141 | 7 | 295 | 1.6 | 3.2 | 0.00 | 0.00 | 0.00 | 99 | 1022.5 |
| 20260503120106 | 3 | 278 | 0.0 | 0.0 | 0.00 | 0.00 | 0.00 | 99 | 1022.2 |
| 20260503110533 | 1 | 278 | 0.0 | 0.0 | 0.00 | 0.00 | 0.00 | 99 | 1021.2 |
| 20260503090420 | 3 | 278 | 0.0 | 0.0 | 0.00 | 0.00 | 0.00 | 99 | 1020.6 |
| 20260503081346 | 3 | 278 | 0.0 | 0.0 | 0.00 | 0.00 | 0.00 | 99 | 1020.1 |
| 20260503080843 | 3 | 278 | 0.0 | 0.0 | 0.00 | 0.00 | 0.00 | 99 | 1020.0 |
| 20260503080340 | 3 | 278 | 0.0 | 0.0 | 0.00 | 0.00 | 0.00 | 99 | 1020.2 |
| 20260503072817 | 4 | 278 | 0.0 | 0.0 | 0.00 | 0.00 | 0.00 | 99 | 1019.9 |
| 20260503072314 | 4 | 278 | 0.0 | 0.0 | 0.00 | 0.00 | 0.00 | 99 | 1019.6 |
| 20260503071809 | 4 | 278 | 0.0 | 0.0 | 0.00 | 0.00 | 0.00 | 99 | 1019.5 |
| 20260503071307 | 4 | 278 | 0.0 | 0.0 | 0.00 | 0.00 | 0.00 | 99 | 1019.5 |
| 20260503070803 | 5 | 278 | 0.0 | 0.0 | 0.00 | 0.00 | 0.00 | 99 | 1019.4 |
| 20260503070301 | 5 | 278 | 0.0 | 0.0 | 0.00 | 0.00 | 0.00 | 99 | 1019.4 |
| 20260503060220 | 6 | 278 | 0.0 | 0.0 | 0.00 | 0.00 | 0.00 | 95 | 1019.4 |
| 20260503054707 | 7 | 278 | 0.0 | 0.0 | 0.00 | 0.00 | 0.00 | 93 | 1019.2 |
| 20260503054204 | 7 | 278 | 0.0 | 0.0 | 0.00 | 0.00 | 0.00 | 93 | 1019.0 |
| 20260503053702 | 7 | 278 | 0.0 | 0.0 | 0.00 | 0.00 | 0.00 | 93 | 1019.2 |
| 20260503053201 | 7 | 278 | 0.0 | 0.0 | 0.00 | 0.00 | 0.00 | 91 | 1019.1 |
| 20260503052657 | 7 | 278 | 0.0 | 0.0 | 0.00 | 0.00 | 0.00 | 90 | 1018.9 |
| 20260503052153 | 7 | 278 | 0.0 | 0.0 | 0.00 | 0.00 | 0.00 | 90 | 1019.1 |
| 20260503051648 | 7 | 278 | 0.0 | 0.0 | 0.00 | 0.00 | 0.00 | 89 | 1018.9 |
| 20260503051146 | 7 | 278 | 0.0 | 0.0 | 0.00 | 0.00 | 0.00 | 89 | 1019.0 |
| 20260503050643 | 8 | 278 | 0.0 | 0.0 | 0.00 | 0.00 | 0.00 | 89 | 1019.1 |
| 20260503050140 | 8 | 278 | 0.0 | 0.0 | 0.00 | 0.00 | 0.00 | 89 | 1018.9 |
| 20260503045637 | 7 | 278 | 0.0 | 0.0 | 0.00 | 0.00 | 0.00 | 91 | 1019.0 |
| 20260503045134 | 7 | 278 | 0.0 | 0.0 | 0.00 | 0.00 | 0.00 | 91 | 1018.9 |
| 20260503044631 | 7 | 278 | 0.0 | 0.0 | 0.00 | 0.00 | 0.00 | 91 | 1019.0 |
| 20260503044129 | 7 | 278 | 0.0 | 0.0 | 0.00 | 0.00 | 0.00 | 91 | 1018.9 |
| 20260503043626 | 7 | 278 | 0.0 | 0.0 | 0.00 | 0.00 | 0.00 | 93 | 1019.0 |
| 20260503043122 | 7 | 278 | 0.0 | 0.0 | 0.00 | 0.00 | 0.00 | 92 | 1019.0 |
| 20260503042619 | 7 | 278 | 0.0 | 0.0 | 0.00 | 0.00 | 0.00 | 90 | 1018.8 |
| 20260503042115 | 7 | 278 | 0.0 | 0.0 | 0.00 | 0.00 | 0.00 | 88 | 1018.9 |
| 20260503041612 | 7 | 278 | 0.0 | 0.0 | 0.00 | 0.00 | 0.00 | 88 | 1018.8 |
| 20260503041109 | 8 | 278 | 0.0 | 0.0 | 0.00 | 0.00 | 0.00 | 87 | 1018.7 |
| 20260503040606 | 8 | 278 | 0.0 | 0.0 | 0.00 | 0.00 | 0.00 | 85 | 1018.6 |
| 20260503040103 | 8 | 278 | 0.0 | 0.0 | 0.00 | 0.00 | 0.00 | 83 | 1018.6 |
| 20260503035559 | 8 | 278 | 0.0 | 0.0 | 0.00 | 0.00 | 0.00 | 83 | 1018.7 |
| 20260503035058 | 8 | 278 | 0.0 | 0.0 | 0.00 | 0.00 | 0.00 | 83 | 1018.7 |
| 20260503034554 | 9 | 278 | 0.0 | 0.0 | 0.00 | 0.00 | 0.00 | 83 | 1018.5 |
| 20260503034052 | 9 | 278 | 0.0 | 0.0 | 0.00 | 0.00 | 0.00 | 84 | 1018.7 |
| 20260503033548 | 10 | 278 | 0.0 | 0.0 | 0.00 | 0.00 | 0.00 | 82 | 1018.6 |
| 20260503033046 | 10 | 278 | 0.0 | 0.0 | 0.00 | 0.00 | 0.00 | 83 | 1018.7 |
| 20260503032545 | 10 | 278 | 0.0 | 0.0 | 0.00 | 0.00 | 0.00 | 82 | 1018.7 |
| 20260503032043 | 10 | 278 | 0.0 | 0.0 | 0.00 | 0.00 | 0.00 | 82 | 1018.3 |
| 20260503031540 | 10 | 278 | 0.0 | 0.0 | 0.00 | 0.00 | 0.00 | 82 | 1018.5 |
| 20260503031037 | 10 | 278 | 0.0 | 0.0 | 0.00 | 0.00 | 0.00 | 83 | 1018.6 |
| 20260503030533 | 10 | 278 | 0.0 | 0.0 | 0.00 | 0.00 | 0.00 | 81 | 1018.6 |
| 20260503030030 | 10 | 278 | 0.0 | 0.0 | 0.00 | 0.00 | 0.00 | 80 | 1018.5 |
| 20260503025526 | 10 | 278 | 0.0 | 0.0 | 0.00 | 0.00 | 0.00 | 81 | 1018.2 |
| 20260503025025 | 10 | 278 | 0.0 | 0.0 | 0.00 | 0.00 | 0.00 | 81 | 1018.2 |
| 20260503024520 | 10 | 278 | 0.0 | 0.0 | 0.00 | 0.00 | 0.00 | 77 | 1018.3 |
| 20260503024018 | 10 | 278 | 0.0 | 0.0 | 0.00 | 0.00 | 0.00 | 78 | 1018.2 |
| 20260503023515 | 10 | 278 | 0.0 | 0.0 | 0.00 | 0.00 | 0.00 | 77 | 1018.2 |
| 20260503023012 | 10 | 278 | 0.0 | 0.0 | 0.00 | 0.00 | 0.00 | 77 | 1018.0 |
| 20260503022508 | 10 | 278 | 0.0 | 0.0 | 0.00 | 0.00 | 0.00 | 77 | 1017.9 |
| 20260503022002 | 10 | 278 | 0.0 | 0.0 | 0.00 | 0.00 | 0.00 | 77 | 1018.1 |
| 20260503021459 | 10 | 278 | 0.0 | 0.0 | 0.00 | 0.00 | 0.00 | 74 | 1018.1 |
| 20260503020957 | 10 | 278 | 0.0 | 0.0 | 0.00 | 0.00 | 0.00 | 78 | 1018.0 |
| 20260503020454 | 10 | 278 | 0.0 | 0.0 | 0.00 | 0.00 | 0.00 | 75 | 1018.1 |
| 20260503015950 | 10 | 278 | 0.0 | 0.0 | 0.00 | 0.00 | 0.00 | 74 | 1017.9 |
| 20260503015447 | 10 | 279 | 0.0 | 0.0 | 0.00 | 0.00 | 0.00 | 74 | 1017.6 |
| 20260503014944 | 10 | 279 | 0.0 | 0.0 | 0.00 | 0.00 | 0.00 | 73 | 1017.7 |
| 20260503014441 | 10 | 277 | 0.0 | 0.0 | 0.00 | 0.00 | 0.00 | 71 | 1017.8 |
| 20260503013939 | 10 | 277 | 0.0 | 0.0 | 0.00 | 0.00 | 0.00 | 75 | 1017.7 |
| 20260503013435 | 10 | 277 | 0.0 | 0.0 | 0.00 | 0.00 | 0.00 | 76 | 1017.5 |
| 20260503012932 | 10 | 278 | 0.0 | 0.0 | 0.00 | 0.00 | 0.00 | 78 | 1017.4 |
| 20260503012431 | 10 | 278 | 0.0 | 3.2 | 0.00 | 0.00 | 0.00 | 75 | 1017.3 |
| 20260503011926 | 10 | 277 | 0.0 | 0.0 | 0.00 | 0.00 | 0.00 | 80 | 1017.1 |
| 20260503011423 | 10 | 277 | 0.0 | 0.0 | 0.00 | 0.00 | 0.00 | 81 | 1017.1 |
| 20260503010921 | 10 | 277 | 0.0 | 0.0 | 0.00 | 0.00 | 0.00 | 82 | 1017.1 |
| 20260503010418 | 10 | 277 | 0.0 | 0.0 | 0.00 | 0.00 | 0.00 | 83 | 1017.0 |
| 20260503005914 | 10 | 279 | 0.0 | 0.0 | 0.00 | 0.00 | 0.00 | 85 | 1017.2 |
| 20260503005412 | 10 | 279 | 0.0 | 0.0 | 0.00 | 0.00 | 0.00 | 82 | 1016.9 |
| 20260503004908 | 10 | 279 | 0.0 | 0.0 | 0.00 | 0.00 | 0.00 | 80 | 1016.9 |
| 20260503004405 | 10 | 279 | 0.0 | 0.0 | 0.00 | 0.00 | 0.00 | 77 | 1016.6 |
| 20260503003903 | 10 | 279 | 0.0 | 0.0 | 0.00 | 0.00 | 0.00 | 73 | 1016.5 |
| 20260503003359 | 10 | 279 | 0.0 | 0.0 | 0.00 | 0.00 | 0.00 | 75 | 1016.4 |
| 20260503002856 | 10 | 279 | 0.0 | 0.0 | 0.00 | 0.00 | 0.00 | 75 | 1016.7 |
| 20260503002354 | 10 | 279 | 0.0 | 0.0 | 0.00 | 0.00 | 0.00 | 72 | 1016.3 |
| 20260503001850 | 11 | 279 | 0.0 | 0.0 | 0.00 | 0.00 | 0.00 | 70 | 1016.2 |
| 20260503001346 | 11 | 279 | 0.0 | 0.0 | 0.00 | 0.00 | 0.00 | 72 | 1016.2 |
| 20260503000844 | 11 | 279 | 0.0 | 0.0 | 0.00 | 0.00 | 0.00 | 69 | 1016.2 |
| 20260503000341 | 12 | 279 | 0.0 | 0.0 | 0.00 | 0.00 | 0.00 | 67 | 1016.1 |
| 20260502235838 | 12 | 279 | 0.0 | 0.0 | 0.00 | 0.00 | 0.00 | 63 | 1016.1 |
| 20260502235335 | 12 | 279 | 0.0 | 0.0 | 0.00 | 0.00 | 0.00 | 63 | 1016.0 |
| 20260502234832 | 13 | 279 | 0.0 | 0.0 | 0.00 | 0.00 | 0.00 | 62 | 1016.0 |
| 20260502234329 | 13 | 281 | 0.0 | 0.0 | 0.00 | 0.00 | 0.00 | 59 | 1015.8 |
| 20260502233826 | 13 | 249 | 1.6 | 3.2 | 0.00 | 0.00 | 0.00 | 53 | 1015.8 |
| 20260502233322 | 14 | 274 | 0.0 | 0.0 | 0.00 | 0.00 | 0.00 | 52 | 1016.0 |
| 20260502232819 | 14 | 270 | 0.0 | 4.8 | 0.00 | 0.00 | 0.00 | 50 | 1015.9 |
| 20260502232315 | 15 | 235 | 1.6 | 3.2 | 0.00 | 0.00 | 0.00 | 50 | 1015.7 |